Time,TemperatureF,DewpointF,PressureIn,WindDirection,WindDirectionDegrees,WindSpeedMPH,WindSpeedGustMPH,Humidity,HourlyPrecipIn,Conditions,Clouds,dailyrainin,SoftwareType,DateUTC
2013-03-17 00:02:00,26.4,18.0,29.99,North,5,5.0,5.0,70,0.00,,,0.02,meteohub,2013-03-16 23:02:00,
2013-03-17 00:07:00,26.4,18.0,29.99,NNW,347,1.0,5.0,70,0.00,,,0.02,meteohub,2013-03-16 23:07:00,
2013-03-17 00:17:00,26.4,18.0,29.99,NNW,341,4.0,5.0,70,0.00,,,0.02,meteohub,2013-03-16 23:17:00,
2013-03-17 00:27:00,26.4,18.0,29.99,North,351,2.0,7.0,70,0.00,,,0.02,meteohub,2013-03-16 23:27:00,
2013-03-17 00:32:00,26.4,18.0,29.99,North,355,1.0,7.0,70,0.00,,,0.02,meteohub,2013-03-16 23:32:00,
2013-03-17 00:42:00,26.2,17.8,29.99,North,355,1.0,6.0,70,0.00,,,0.02,meteohub,2013-03-16 23:42:00,
2013-03-17 00:47:00,26.2,17.8,29.99,North,355,1.0,6.0,70,0.00,,,0.02,meteohub,2013-03-16 23:47:00,
2013-03-17 00:57:00,26.1,18.0,29.99,North,355,1.0,5.0,71,0.00,,,0.02,meteohub,2013-03-16 23:57:00,
2013-03-17 01:02:00,25.9,18.1,29.99,North,355,1.0,4.0,72,0.00,,,0.02,meteohub,2013-03-17 00:02:00,
2013-03-17 01:07:00,25.9,18.1,29.99,North,355,2.0,4.0,72,0.00,,,0.00,meteohub,2013-03-17 00:07:00,
2013-03-17 01:17:00,25.7,18.0,29.99,NNW,342,1.0,4.0,72,0.00,,,0.00,meteohub,2013-03-17 00:17:00,
2013-03-17 01:22:00,25.5,17.8,29.98,North,355,0.0,5.0,72,0.00,,,0.00,meteohub,2013-03-17 00:22:00,
2013-03-17 01:27:00,25.5,17.8,29.98,North,0,1.0,5.0,72,0.00,,,0.00,meteohub,2013-03-17 00:27:00,
2013-03-17 01:37:00,25.5,17.8,29.98,North,0,0.0,6.0,72,0.00,,,0.00,meteohub,2013-03-17 00:37:00,
2013-03-17 01:42:00,25.5,17.4,29.98,NNW,347,1.0,6.0,71,0.00,,,0.00,meteohub,2013-03-17 00:42:00,
2013-03-17 01:47:00,25.5,17.4,29.98,NNW,341,2.0,6.0,71,0.00,,,0.00,meteohub,2013-03-17 00:47:00,
2013-03-17 01:57:00,25.9,17.1,29.97,North,355,0.0,7.0,69,0.00,,,0.00,meteohub,2013-03-17 00:57:00,
2013-03-17 02:02:00,25.9,17.1,29.97,North,0,5.0,7.0,69,0.00,,,0.00,meteohub,2013-03-17 01:02:00,
2013-03-17 02:12:00,26.1,16.9,29.97,NNW,328,1.0,10.0,68,0.00,,,0.00,meteohub,2013-03-17 01:12:00,
2013-03-17 02:22:00,25.9,17.1,29.97,NNW,342,0.0,10.0,69,0.00,,,0.00,meteohub,2013-03-17 01:22:00,
2013-03-17 02:27:00,25.9,17.1,29.97,NNW,348,3.0,6.0,69,0.00,,,0.00,meteohub,2013-03-17 01:27:00,
2013-03-17 02:37:00,25.7,16.9,29.96,NW,326,5.0,5.0,69,0.00,,,0.00,meteohub,2013-03-17 01:37:00,
2013-03-17 02:42:00,25.7,16.9,29.96,North,350,1.0,7.0,69,0.00,,,0.00,meteohub,2013-03-17 01:42:00,
2013-03-17 02:47:00,25.5,17.1,29.96,NNW,348,0.0,7.0,70,0.00,,,0.00,meteohub,2013-03-17 01:47:00,
2013-03-17 02:52:00,25.5,17.1,29.96,North,350,2.0,7.0,70,0.00,,,0.00,meteohub,2013-03-17 01:52:00,
2013-03-17 02:57:00,25.5,17.1,29.96,NNW,348,0.0,6.0,70,0.00,,,0.00,meteohub,2013-03-17 01:57:00,
2013-03-17 03:02:00,25.5,17.1,29.96,North,351,1.0,5.0,70,0.00,,,0.00,meteohub,2013-03-17 02:02:00,
2013-03-17 03:07:00,25.5,17.1,29.96,NW,314,1.0,6.0,70,0.00,,,0.00,meteohub,2013-03-17 02:07:00,
2013-03-17 03:12:00,25.5,17.1,29.96,North,5,5.0,7.0,70,0.00,,,0.00,meteohub,2013-03-17 02:12:00,
2013-03-17 03:17:00,25.5,17.1,29.96,NNW,345,0.0,7.0,70,0.00,,,0.00,meteohub,2013-03-17 02:17:00,
2013-03-17 03:22:00,25.3,16.9,29.96,North,351,1.0,7.0,70,0.00,,,0.00,meteohub,2013-03-17 02:22:00,
2013-03-17 03:32:00,25.3,17.2,29.96,North,0,1.0,5.0,71,0.00,,,0.00,meteohub,2013-03-17 02:32:00,
2013-03-17 03:42:00,25.2,17.1,29.96,North,355,2.0,5.0,71,0.00,,,0.00,meteohub,2013-03-17 02:42:00,
2013-03-17 03:47:00,25.2,17.1,29.96,North,5,1.0,5.0,71,0.00,,,0.00,meteohub,2013-03-17 02:47:00,
2013-03-17 03:52:00,25.2,17.1,29.96,NNW,348,0.0,5.0,71,0.00,,,0.00,meteohub,2013-03-17 02:52:00,
2013-03-17 03:57:00,25.0,16.9,29.95,North,355,1.0,5.0,71,0.00,,,0.00,meteohub,2013-03-17 02:57:00,
2013-03-17 04:02:00,24.8,16.7,29.95,NNW,348,2.0,5.0,71,0.00,,,0.00,meteohub,2013-03-17 03:02:00,
2013-03-17 04:12:00,24.6,16.5,29.95,North,355,2.0,6.0,71,0.00,,,0.00,meteohub,2013-03-17 03:12:00,
2013-03-17 04:17:00,24.6,16.5,29.95,NNW,337,1.0,6.0,71,0.00,,,0.00,meteohub,2013-03-17 03:17:00,
2013-03-17 04:22:00,24.6,16.9,29.94,North,350,2.0,4.0,72,0.00,,,0.00,meteohub,2013-03-17 03:22:00,
2013-03-17 04:27:00,24.4,16.7,29.94,NNW,346,2.0,5.0,72,0.00,,,0.00,meteohub,2013-03-17 03:27:00,
2013-03-17 04:32:00,24.4,16.7,29.94,NNW,347,1.0,6.0,72,0.00,,,0.00,meteohub,2013-03-17 03:32:00,
2013-03-17 04:37:00,24.3,16.5,29.94,North,355,2.0,6.0,72,0.00,,,0.00,meteohub,2013-03-17 03:37:00,
2013-03-17 04:47:00,24.1,16.7,29.94,North,0,2.0,5.0,73,0.00,,,0.00,meteohub,2013-03-17 03:47:00,
2013-03-17 04:52:00,23.9,16.9,29.94,NNW,342,5.0,6.0,74,0.00,,,0.00,meteohub,2013-03-17 03:52:00,
2013-03-17 05:02:00,23.7,16.7,29.93,North,355,1.0,6.0,74,0.00,,,0.00,meteohub,2013-03-17 04:02:00,
2013-03-17 05:07:00,23.7,16.7,29.93,NNW,343,5.0,5.0,74,0.00,,,0.00,meteohub,2013-03-17 04:07:00,
2013-03-17 05:12:00,23.7,16.3,29.93,NNW,338,5.0,9.0,73,0.00,,,0.00,meteohub,2013-03-17 04:12:00,
2013-03-17 05:17:00,23.7,16.3,29.93,NNE,22,2.0,9.0,73,0.00,,,0.00,meteohub,2013-03-17 04:17:00,
2013-03-17 05:27:00,23.5,16.5,29.93,NNE,28,1.0,8.0,74,0.00,,,0.00,meteohub,2013-03-17 04:27:00,
2013-03-17 05:37:00,23.2,16.5,29.93,NNW,344,0.0,6.0,75,0.00,,,0.00,meteohub,2013-03-17 04:37:00,
2013-03-17 05:42:00,22.8,16.2,29.93,North,355,2.0,6.0,75,0.00,,,0.00,meteohub,2013-03-17 04:42:00,
2013-03-17 05:47:00,22.6,16.2,29.92,NNW,336,0.0,5.0,76,0.00,,,0.00,meteohub,2013-03-17 04:47:00,
2013-03-17 05:52:00,22.5,16.7,29.92,NNW,329,1.0,5.0,78,0.00,,,0.00,meteohub,2013-03-17 04:52:00,
2013-03-17 05:57:00,21.9,16.3,29.92,North,5,1.0,5.0,79,0.00,,,0.00,meteohub,2013-03-17 04:57:00,
2013-03-17 06:07:00,21.6,16.7,29.92,North,5,1.0,5.0,81,0.00,,,0.00,meteohub,2013-03-17 05:07:00,
2013-03-17 06:17:00,21.0,16.3,29.92,North,355,2.0,5.0,82,0.00,,,0.00,meteohub,2013-03-17 05:17:00,
2013-03-17 06:27:00,20.8,16.5,29.91,NNW,339,1.0,5.0,83,0.00,,,0.00,meteohub,2013-03-17 05:27:00,
2013-03-17 06:32:00,21.0,16.7,29.91,North,355,5.0,7.0,83,0.00,,,0.00,meteohub,2013-03-17 05:32:00,
2013-03-17 06:42:00,21.4,16.7,29.91,North,0,2.0,7.0,82,0.00,,,0.00,meteohub,2013-03-17 05:42:00,
2013-03-17 06:47:00,21.4,16.7,29.91,North,355,0.0,7.0,82,0.00,,,0.00,meteohub,2013-03-17 05:47:00,
2013-03-17 06:57:00,21.6,16.9,29.91,North,355,1.0,5.0,82,0.00,,,0.00,meteohub,2013-03-17 05:57:00,
2013-03-17 07:02:00,21.7,16.9,29.91,NNW,348,1.0,6.0,81,0.00,,,0.00,meteohub,2013-03-17 06:02:00,
2013-03-17 07:12:00,21.9,17.1,29.91,North,0,1.0,6.0,81,0.00,,,0.00,meteohub,2013-03-17 06:12:00,
2013-03-17 07:22:00,21.7,16.9,29.91,NNW,345,2.0,6.0,81,0.00,,,0.00,meteohub,2013-03-17 06:22:00,
2013-03-17 07:32:00,21.9,17.1,29.91,NNW,329,0.0,9.0,81,0.00,,,0.00,meteohub,2013-03-17 06:32:00,
2013-03-17 07:42:00,23.5,18.0,29.91,North,355,2.0,6.0,79,0.00,,,0.00,meteohub,2013-03-17 06:42:00,
2013-03-17 07:47:00,24.3,17.8,29.91,NNW,328,2.0,5.0,76,0.00,,,0.00,meteohub,2013-03-17 06:47:00,
2013-03-17 07:52:00,24.6,17.8,29.90,North,355,2.0,5.0,75,0.00,,,0.00,meteohub,2013-03-17 06:52:00,
2013-03-17 07:57:00,24.6,17.6,29.90,North,9,3.0,8.0,74,0.00,,,0.00,meteohub,2013-03-17 06:57:00,
2013-03-17 08:02:00,24.4,17.6,29.90,NW,319,1.0,9.0,75,0.00,,,0.00,meteohub,2013-03-17 07:02:00,
2013-03-17 08:07:00,24.8,17.8,29.90,NNW,336,1.0,9.0,74,0.00,,,0.00,meteohub,2013-03-17 07:07:00,
2013-03-17 08:12:00,25.0,18.0,29.90,North,355,7.0,9.0,74,0.00,,,0.00,meteohub,2013-03-17 07:12:00,
2013-03-17 08:17:00,25.2,18.0,29.89,NNW,339,4.0,8.0,74,0.00,,,0.00,meteohub,2013-03-17 07:17:00,
2013-03-17 08:27:00,24.8,17.8,29.90,NNW,334,8.0,11.0,74,0.00,,,0.00,meteohub,2013-03-17 07:27:00,
2013-03-17 08:32:00,25.2,18.0,29.90,North,11,6.0,11.0,74,0.00,,,0.00,meteohub,2013-03-17 07:32:00,
2013-03-17 08:42:00,25.2,17.8,29.90,North,350,4.0,9.0,73,0.00,,,0.00,meteohub,2013-03-17 07:42:00,
2013-03-17 08:52:00,25.9,18.1,29.90,North,350,0.0,10.0,72,0.00,,,0.00,meteohub,2013-03-17 07:52:00,
2013-03-17 08:57:00,26.4,18.3,29.90,North,5,2.0,9.0,71,0.00,,,0.00,meteohub,2013-03-17 07:57:00,
2013-03-17 09:07:00,27.3,18.5,29.90,NNW,340,7.0,7.0,69,0.00,,,0.00,meteohub,2013-03-17 08:07:00,
2013-03-17 09:12:00,27.3,18.1,29.90,North,0,5.0,8.0,68,0.00,,,0.00,meteohub,2013-03-17 08:12:00,
2013-03-17 09:22:00,27.9,18.3,29.89,NNW,333,2.0,9.0,67,0.00,,,0.00,meteohub,2013-03-17 08:22:00,
2013-03-17 09:27:00,28.4,19.2,29.89,NNW,347,4.0,9.0,68,0.00,,,0.00,meteohub,2013-03-17 08:27:00,
2013-03-17 09:32:00,28.6,19.0,29.89,NNE,15,3.0,9.0,67,0.00,,,0.00,meteohub,2013-03-17 08:32:00,
2013-03-17 09:42:00,28.9,19.0,29.88,North,355,1.0,8.0,66,0.00,,,0.00,meteohub,2013-03-17 08:42:00,
2013-03-17 09:47:00,29.5,19.2,29.88,North,0,5.0,8.0,65,0.00,,,0.00,meteohub,2013-03-17 08:47:00,
2013-03-17 09:52:00,29.8,19.9,29.88,NNW,328,7.0,8.0,66,0.00,,,0.00,meteohub,2013-03-17 08:52:00,
2013-03-17 09:57:00,29.7,19.0,29.88,NW,317,8.0,11.0,64,0.00,,,0.00,meteohub,2013-03-17 08:57:00,
2013-03-17 10:07:00,29.8,19.6,29.87,West,278,2.0,11.0,65,0.00,,,0.00,meteohub,2013-03-17 09:07:00,
2013-03-17 10:12:00,30.6,20.1,29.87,NNW,347,2.0,11.0,65,0.00,,,0.00,meteohub,2013-03-17 09:12:00,
2013-03-17 10:22:00,31.3,19.8,29.86,WNW,288,0.0,13.0,62,0.00,,,0.00,meteohub,2013-03-17 09:22:00,
2013-03-17 10:27:00,30.9,19.4,29.86,NNW,346,4.0,13.0,62,0.00,,,0.00,meteohub,2013-03-17 09:27:00,
2013-03-17 10:32:00,30.9,19.4,29.86,North,10,4.0,12.0,62,0.00,,,0.00,meteohub,2013-03-17 09:32:00,
2013-03-17 10:37:00,31.1,19.9,29.86,North,11,5.0,12.0,63,0.00,,,0.00,meteohub,2013-03-17 09:37:00,
2013-03-17 10:47:00,31.8,20.3,29.86,NW,323,4.0,12.0,62,0.00,,,0.00,meteohub,2013-03-17 09:47:00,
2013-03-17 10:57:00,33.1,20.7,29.86,North,350,4.0,8.0,60,0.01,,,0.01,meteohub,2013-03-17 09:57:00,
2013-03-17 11:07:00,33.3,21.2,29.85,NNW,348,1.0,11.0,61,0.01,,,0.01,meteohub,2013-03-17 10:07:00,
2013-03-17 11:12:00,33.8,21.0,29.85,NNE,13,6.0,11.0,59,0.01,,,0.01,meteohub,2013-03-17 10:12:00,
2013-03-17 11:22:00,34.7,22.3,29.85,NNE,13,8.0,10.0,60,0.01,,,0.01,meteohub,2013-03-17 10:22:00,
2013-03-17 11:27:00,34.9,21.2,29.85,WNW,293,2.0,10.0,57,0.01,,,0.01,meteohub,2013-03-17 10:27:00,
2013-03-17 11:32:00,35.1,21.7,29.85,North,0,2.0,10.0,58,0.01,,,0.01,meteohub,2013-03-17 10:32:00,
2013-03-17 11:37:00,35.8,20.8,29.84,NW,325,6.0,13.0,54,0.01,,,0.01,meteohub,2013-03-17 10:37:00,
2013-03-17 11:47:00,36.3,20.3,29.84,North,5,2.0,13.0,52,0.01,,,0.01,meteohub,2013-03-17 10:47:00,
2013-03-17 11:52:00,36.5,19.6,29.83,North,5,6.0,11.0,50,0.01,,,0.01,meteohub,2013-03-17 10:52:00,
2013-03-17 11:57:00,36.9,20.5,29.82,NNW,343,5.0,11.0,51,0.00,,,0.01,meteohub,2013-03-17 10:57:00,
2013-03-17 12:07:00,37.4,20.8,29.82,NNW,340,6.0,11.0,51,0.00,,,0.01,meteohub,2013-03-17 11:07:00,
2013-03-17 12:12:00,37.2,20.8,29.82,North,355,2.0,12.0,51,0.01,,,0.02,meteohub,2013-03-17 11:12:00,
2013-03-17 12:22:00,37.6,21.6,29.83,NNW,340,5.0,12.0,52,0.01,,,0.02,meteohub,2013-03-17 11:22:00,
2013-03-17 12:32:00,37.8,21.7,29.81,North,355,2.0,8.0,52,0.01,,,0.02,meteohub,2013-03-17 11:32:00,
2013-03-17 12:37:00,38.5,22.5,29.81,NNW,329,7.0,12.0,52,0.01,,,0.02,meteohub,2013-03-17 11:37:00,
2013-03-17 12:47:00,37.9,22.3,29.80,NW,304,5.0,16.0,53,0.01,,,0.02,meteohub,2013-03-17 11:47:00,
2013-03-17 12:57:00,38.7,22.6,29.80,NNW,327,3.0,15.0,52,0.01,,,0.02,meteohub,2013-03-17 11:57:00,
2013-03-17 13:02:00,38.7,23.0,29.80,North,5,6.0,15.0,53,0.01,,,0.02,meteohub,2013-03-17 12:02:00,
2013-03-17 13:07:00,38.8,23.5,29.80,NNE,13,4.0,11.0,54,0.00,,,0.02,meteohub,2013-03-17 12:07:00,
2013-03-17 13:17:00,38.7,22.6,29.78,NW,313,1.0,18.0,52,0.00,,,0.02,meteohub,2013-03-17 12:17:00,
2013-03-17 13:27:00,38.8,22.6,29.78,NNE,15,9.0,18.0,52,0.00,,,0.02,meteohub,2013-03-17 12:27:00,
2013-03-17 13:32:00,38.8,23.2,29.78,North,350,8.0,13.0,53,0.00,,,0.02,meteohub,2013-03-17 12:32:00,
2013-03-17 13:37:00,38.8,23.2,29.78,North,0,7.0,13.0,53,0.00,,,0.02,meteohub,2013-03-17 12:37:00,
2013-03-17 13:42:00,39.0,22.8,29.78,NNW,342,4.0,14.0,52,0.00,,,0.02,meteohub,2013-03-17 12:42:00,
2013-03-17 13:52:00,39.2,23.5,29.78,NW,317,2.0,14.0,53,0.00,,,0.02,meteohub,2013-03-17 12:52:00,
2013-03-17 13:57:00,39.0,22.8,29.78,NW,306,4.0,11.0,52,0.00,,,0.02,meteohub,2013-03-17 12:57:00,
2013-03-17 14:07:00,38.8,23.2,29.77,NNW,340,5.0,14.0,53,0.00,,,0.02,meteohub,2013-03-17 13:07:00,
2013-03-17 14:17:00,39.0,22.8,29.76,NNW,336,7.0,14.0,52,0.00,,,0.02,meteohub,2013-03-17 13:17:00,
2013-03-17 14:27:00,38.8,23.2,29.76,North,355,8.0,14.0,53,0.00,,,0.02,meteohub,2013-03-17 13:27:00,
2013-03-17 14:32:00,39.0,22.8,29.77,North,9,2.0,14.0,52,0.00,,,0.02,meteohub,2013-03-17 13:32:00,
2013-03-17 14:42:00,39.4,24.1,29.76,NW,312,5.0,14.0,54,0.00,,,0.02,meteohub,2013-03-17 13:42:00,
2013-03-17 14:52:00,39.6,24.3,29.76,North,0,5.0,10.0,54,0.00,,,0.02,meteohub,2013-03-17 13:52:00,
2013-03-17 14:57:00,39.2,23.5,29.75,NNW,343,3.0,10.0,53,0.00,,,0.02,meteohub,2013-03-17 13:57:00,
2013-03-17 15:02:00,38.8,23.2,29.75,NNW,340,1.0,11.0,53,0.00,,,0.02,meteohub,2013-03-17 14:02:00,
2013-03-17 15:07:00,39.0,23.7,29.74,NW,305,3.0,11.0,54,0.00,,,0.02,meteohub,2013-03-17 14:07:00,
2013-03-17 15:12:00,39.2,23.5,29.74,NNE,19,8.0,11.0,53,0.00,,,0.02,meteohub,2013-03-17 14:12:00,
2013-03-17 15:17:00,39.4,24.1,29.73,NNE,13,8.0,14.0,54,0.00,,,0.02,meteohub,2013-03-17 14:17:00,
2013-03-17 15:22:00,39.4,24.1,29.73,North,0,3.0,14.0,54,0.00,,,0.02,meteohub,2013-03-17 14:22:00,
2013-03-17 15:27:00,39.4,24.1,29.73,North,11,7.0,12.0,54,0.00,,,0.02,meteohub,2013-03-17 14:27:00,
2013-03-17 15:37:00,39.2,23.9,29.73,North,355,6.0,15.0,54,0.00,,,0.02,meteohub,2013-03-17 14:37:00,
2013-03-17 15:47:00,39.4,23.7,29.72,North,350,6.0,14.0,53,0.01,,,0.02,meteohub,2013-03-17 14:47:00,
2013-03-17 15:57:00,39.0,23.7,29.72,North,0,4.0,14.0,54,0.01,,,0.02,meteohub,2013-03-17 14:57:00,
2013-03-17 16:02:00,38.8,23.5,29.72,NNE,24,8.0,13.0,54,0.01,,,0.02,meteohub,2013-03-17 15:02:00,
2013-03-17 16:07:00,38.7,23.4,29.72,North,355,8.0,13.0,54,0.01,,,0.02,meteohub,2013-03-17 15:07:00,
2013-03-17 16:17:00,38.1,23.4,29.72,North,350,4.0,14.0,55,0.01,,,0.02,meteohub,2013-03-17 15:17:00,
2013-03-17 16:22:00,37.9,23.7,29.72,North,0,7.0,15.0,56,0.01,,,0.02,meteohub,2013-03-17 15:22:00,
2013-03-17 16:27:00,37.9,24.1,29.73,NNW,336,4.0,15.0,57,0.01,,,0.02,meteohub,2013-03-17 15:27:00,
2013-03-17 16:37:00,37.8,23.9,29.73,North,349,4.0,11.0,57,0.01,,,0.02,meteohub,2013-03-17 15:37:00,
2013-03-17 16:42:00,37.4,24.4,29.72,NNW,333,2.0,11.0,59,0.00,,,0.02,meteohub,2013-03-17 15:42:00,
2013-03-17 16:47:00,37.2,23.7,29.72,North,5,5.0,12.0,58,0.00,,,0.02,meteohub,2013-03-17 15:47:00,
2013-03-17 16:52:00,37.0,24.1,29.72,North,355,2.0,12.0,59,0.00,,,0.02,meteohub,2013-03-17 15:52:00,
2013-03-17 17:02:00,36.9,23.9,29.72,NNW,333,5.0,15.0,59,0.00,,,0.02,meteohub,2013-03-17 16:02:00,
2013-03-17 17:12:00,36.7,23.4,29.71,North,351,5.0,15.0,58,0.00,,,0.02,meteohub,2013-03-17 16:12:00,
2013-03-17 17:22:00,36.3,23.4,29.71,NNE,19,4.0,15.0,59,0.00,,,0.02,meteohub,2013-03-17 16:22:00,
2013-03-17 17:27:00,36.1,23.2,29.71,North,355,5.0,15.0,59,0.00,,,0.02,meteohub,2013-03-17 16:27:00,
2013-03-17 17:32:00,36.1,23.5,29.71,NNW,332,5.0,15.0,60,0.00,,,0.02,meteohub,2013-03-17 16:32:00,
2013-03-17 17:42:00,35.8,23.2,29.71,North,9,6.0,12.0,60,0.00,,,0.02,meteohub,2013-03-17 16:42:00,
2013-03-17 17:52:00,35.4,23.4,29.72,NW,315,4.0,9.0,61,0.00,,,0.02,meteohub,2013-03-17 16:52:00,
2013-03-17 18:02:00,35.1,23.4,29.72,NNW,340,4.0,11.0,62,0.00,,,0.02,meteohub,2013-03-17 17:02:00,
2013-03-17 18:07:00,34.9,23.2,29.72,NNW,332,3.0,11.0,62,0.00,,,0.02,meteohub,2013-03-17 17:07:00,
2013-03-17 18:17:00,34.5,22.8,29.72,NNW,340,5.0,11.0,62,0.00,,,0.02,meteohub,2013-03-17 17:17:00,
2013-03-17 18:22:00,34.3,23.0,29.72,NE,34,9.0,11.0,63,0.00,,,0.02,meteohub,2013-03-17 17:22:00,
2013-03-17 18:27:00,34.3,23.0,29.72,NNW,332,5.0,11.0,63,0.00,,,0.02,meteohub,2013-03-17 17:27:00,
2013-03-17 18:32:00,34.2,22.8,29.71,North,355,7.0,11.0,63,0.00,,,0.02,meteohub,2013-03-17 17:32:00,
2013-03-17 18:37:00,34.0,22.6,29.72,NNW,330,8.0,11.0,63,0.00,,,0.02,meteohub,2013-03-17 17:37:00,
2013-03-17 18:42:00,34.0,22.6,29.72,NNW,341,4.0,11.0,63,0.00,,,0.02,meteohub,2013-03-17 17:42:00,
2013-03-17 18:47:00,34.0,22.6,29.72,NNE,15,8.0,11.0,63,0.00,,,0.02,meteohub,2013-03-17 17:47:00,
2013-03-17 18:52:00,33.8,22.5,29.72,NW,313,5.0,11.0,63,0.00,,,0.02,meteohub,2013-03-17 17:52:00,
2013-03-17 18:57:00,33.6,22.5,29.72,NNW,334,5.0,11.0,63,0.00,,,0.02,meteohub,2013-03-17 17:57:00,
2013-03-17 19:02:00,33.6,22.5,29.72,North,9,7.0,11.0,63,0.00,,,0.02,meteohub,2013-03-17 18:02:00,
2013-03-17 19:12:00,33.4,22.6,29.72,NNW,329,5.0,15.0,64,0.00,,,0.02,meteohub,2013-03-17 18:12:00,
2013-03-17 19:17:00,33.4,23.0,29.72,NNW,346,7.0,15.0,65,0.00,,,0.02,meteohub,2013-03-17 18:17:00,
2013-03-17 19:22:00,33.3,22.8,29.71,North,5,7.0,15.0,65,0.00,,,0.02,meteohub,2013-03-17 18:22:00,
2013-03-17 19:27:00,33.3,22.8,29.71,NW,320,6.0,11.0,65,0.00,,,0.02,meteohub,2013-03-17 18:27:00,
2013-03-17 19:32:00,33.3,22.8,29.72,NNE,23,4.0,12.0,65,0.00,,,0.02,meteohub,2013-03-17 18:32:00,
2013-03-17 19:37:00,33.1,22.6,29.72,NNW,330,5.0,12.0,65,0.00,,,0.02,meteohub,2013-03-17 18:37:00,
2013-03-17 19:42:00,33.1,22.6,29.72,NNW,345,6.0,13.0,65,0.00,,,0.02,meteohub,2013-03-17 18:42:00,
2013-03-17 19:52:00,32.7,22.6,29.71,NNW,335,5.0,11.0,66,0.00,,,0.02,meteohub,2013-03-17 18:52:00,
2013-03-17 19:57:00,32.7,22.6,29.71,NNW,348,5.0,8.0,66,0.00,,,0.02,meteohub,2013-03-17 18:57:00,
2013-03-17 20:02:00,32.7,22.6,29.71,North,10,12.0,12.0,66,0.00,,,0.02,meteohub,2013-03-17 19:02:00,
2013-03-17 20:07:00,32.7,22.6,29.71,North,11,4.0,13.0,66,0.00,,,0.02,meteohub,2013-03-17 19:07:00,
2013-03-17 20:12:00,32.5,22.8,29.71,NNW,336,2.0,13.0,67,0.00,,,0.02,meteohub,2013-03-17 19:12:00,
2013-03-17 20:22:00,32.5,22.8,29.70,NNW,340,2.0,10.0,67,0.00,,,0.02,meteohub,2013-03-17 19:22:00,
2013-03-17 20:32:00,32.4,22.6,29.70,NNW,333,3.0,10.0,67,0.00,,,0.02,meteohub,2013-03-17 19:32:00,
2013-03-17 20:37:00,32.4,22.6,29.70,NW,325,5.0,11.0,67,0.00,,,0.02,meteohub,2013-03-17 19:37:00,
2013-03-17 20:47:00,32.2,22.8,29.69,North,355,5.0,12.0,68,0.00,,,0.02,meteohub,2013-03-17 19:47:00,
2013-03-17 20:52:00,32.2,22.8,29.69,NNW,340,4.0,12.0,68,0.00,,,0.02,meteohub,2013-03-17 19:52:00,
2013-03-17 21:02:00,31.8,22.5,29.69,NNW,342,0.0,15.0,68,0.00,,,0.02,meteohub,2013-03-17 20:02:00,
2013-03-17 21:07:00,31.8,22.8,29.68,NW,316,4.0,15.0,69,0.00,,,0.02,meteohub,2013-03-17 20:07:00,
2013-03-17 21:12:00,31.6,22.6,29.68,NNE,18,6.0,8.0,69,0.00,,,0.02,meteohub,2013-03-17 20:12:00,
2013-03-17 21:17:00,31.6,22.6,29.68,NNW,342,5.0,10.0,69,0.00,,,0.02,meteohub,2013-03-17 20:17:00,
2013-03-17 21:22:00,31.6,22.6,29.68,NW,323,5.0,11.0,69,0.00,,,0.02,meteohub,2013-03-17 20:22:00,
2013-03-17 21:32:00,31.5,22.5,29.68,NNW,329,1.0,14.0,69,0.00,,,0.02,meteohub,2013-03-17 20:32:00,
2013-03-17 21:37:00,31.5,22.8,29.67,North,355,6.0,12.0,70,0.00,,,0.02,meteohub,2013-03-17 20:37:00,
2013-03-17 21:42:00,31.3,22.6,29.67,NNW,333,6.0,11.0,70,0.00,,,0.02,meteohub,2013-03-17 20:42:00,
2013-03-17 21:47:00,31.1,22.5,29.67,North,355,1.0,11.0,70,0.00,,,0.02,meteohub,2013-03-17 20:47:00,
2013-03-17 21:57:00,30.9,22.6,29.67,North,355,1.0,12.0,71,0.00,,,0.02,meteohub,2013-03-17 20:57:00,
2013-03-17 22:02:00,30.7,22.5,29.67,North,355,1.0,9.0,71,0.00,,,0.02,meteohub,2013-03-17 21:02:00,
2013-03-17 22:12:00,30.7,22.8,29.66,NNW,340,3.0,10.0,72,0.01,,,0.03,meteohub,2013-03-17 21:12:00,
2013-03-17 22:22:00,30.7,22.8,29.66,NNW,329,2.0,10.0,72,0.01,,,0.03,meteohub,2013-03-17 21:22:00,
2013-03-17 22:27:00,30.6,22.6,29.66,NW,323,1.0,10.0,72,0.01,,,0.03,meteohub,2013-03-17 21:27:00,
2013-03-17 22:32:00,30.6,22.6,29.66,North,355,3.0,10.0,72,0.01,,,0.03,meteohub,2013-03-17 21:32:00,
2013-03-17 22:42:00,30.6,23.0,29.66,NNE,17,5.0,11.0,73,0.01,,,0.03,meteohub,2013-03-17 21:42:00,
2013-03-17 22:52:00,30.4,22.8,29.66,North,355,5.0,7.0,73,0.01,,,0.03,meteohub,2013-03-17 21:52:00,
2013-03-17 22:57:00,30.4,22.8,29.66,WNW,297,1.0,9.0,73,0.01,,,0.03,meteohub,2013-03-17 21:57:00,
2013-03-17 23:02:00,30.2,23.0,29.65,NNW,329,4.0,9.0,74,0.01,,,0.03,meteohub,2013-03-17 22:02:00,
2013-03-17 23:07:00,30.2,23.0,29.65,NNW,333,6.0,9.0,74,0.01,,,0.03,meteohub,2013-03-17 22:07:00,
2013-03-17 23:12:00,30.0,22.8,29.65,NNW,331,7.0,10.0,74,0.00,,,0.03,meteohub,2013-03-17 22:12:00,
2013-03-17 23:22:00,30.0,22.8,29.65,NNW,329,6.0,9.0,74,0.00,,,0.03,meteohub,2013-03-17 22:22:00,
2013-03-17 23:27:00,30.0,23.0,29.65,NNW,338,5.0,11.0,75,0.00,,,0.03,meteohub,2013-03-17 22:27:00,
2013-03-17 23:32:00,29.8,22.8,29.65,North,355,9.0,13.0,75,0.00,,,0.03,meteohub,2013-03-17 22:32:00,
2013-03-17 23:37:00,29.8,22.8,29.64,NNW,334,4.0,13.0,75,0.00,,,0.03,meteohub,2013-03-17 22:37:00,
2013-03-17 23:42:00,29.8,22.8,29.64,North,0,2.0,13.0,75,0.00,,,0.03,meteohub,2013-03-17 22:42:00,
2013-03-17 23:47:00,29.8,22.8,29.64,North,0,3.0,12.0,75,0.00,,,0.03,meteohub,2013-03-17 22:47:00,
2013-03-17 23:52:00,29.7,22.6,29.64,NNW,335,7.0,8.0,75,0.00,,,0.03,meteohub,2013-03-17 22:52:00,
2013-03-17 23:57:00,29.7,22.6,29.64,NW,323,0.0,7.0,75,0.00,,,0.03,meteohub,2013-03-17 22:57:00,